#timestamp,LO_Frequency,Hit,StdDev 
1579457715.3,286047023.3,P
1579457735.2,286047024.3,P
1579457755.0,286047026.1,P
1579457755.9,286047026.1,Y
1579457775.8,286047003.9,P
1579457795.6,286047001.4,N
1579457815.4,286047004.9,N
1579457835.3,286047007.3,N
1579457855.1,286047006.5,N
1579457875.8,286047010.8,N
1579457895.7,286047010.1,N
1579457915.5,286047012.0,N
1579457935.4,286047009.5,N
1579457955.2,286047009.6,N
1579457975.0,286047009.8,N
1579457975.9,286047009.8,N
1579457995.8,286047012.8,N
1579458015.6,286047014.2,N
1579458035.4,286047016.5,Y
1579458055.3,286047006.7,P
1579458075.1,286047006.3,P
1579458095.9,286047006.4,P
1579458115.7,286047004.8,Y
1579458135.5,286046998.3,P
1579458155.4,286047001.0,N
1579458175.2,286047000.4,N
1579458195.0,286047001.2,N
1579458195.9,286047001.2,N
1579458215.8,286047000.4,N
1579458235.6,286046999.7,N
1579458255.5,286047004.4,N
1579458275.3,286047004.3,N
1579458295.1,286047005.4,N
1579458315.9,286047007.3,N
1579458335.7,286047006.4,N
1579458355.5,286047009.1,Y
1579458375.4,286047005.0,P
1579458395.2,286047004.7,P
1579458415.1,286047005.3,P
1579458416.0,286047005.3,Y
1579458435.8,286047000.5,P
1579458455.6,286046999.9,N
1579458475.5,286047000.1,N
1579458495.3,286047002.8,N
1579458515.1,286047002.1,N
1579458535.9,286047002.6,N
1579458555.7,286047002.3,N
1579458575.6,286047000.4,N
1579458595.4,286046999.8,N
1579458615.2,286047000.6,N
1579458635.1,286047000.4,N
1579458636.0,286047000.4,N
1579458655.8,286047002.3,N
1579458675.7,286047004.4,Y
1579458695.5,286047005.8,P
1579458715.3,286047005.4,N
1579458735.2,286047005.5,N
1579458755.9,286047004.1,N
1579458775.7,286047005.2,Y
1579458795.6,286047001.3,P
1579458815.4,286047003.1,N
1579458835.3,286047003.7,N
1579458855.1,286047004.2,Y
1579458856.0,286047004.2,P
1579458875.8,286047000.3,N
1579458895.7,286047002.3,N
1579458915.5,286047000.1,N
1579458935.3,286047000.4,N
1579458955.2,286047000.8,N
1579458975.0,286047000.9,N
1579458975.9,286047000.9,N
1579458995.8,286046999.7,N
1579459015.6,286047001.5,N
1579459035.4,286047004.2,Y
1579459055.3,286047003.7,P
1579459075.1,286047004.0,P
1579459095.8,286047004.4,P
1579459115.7,286047001.8,N
1579459135.5,286047004.1,Y
1579459155.4,286047000.0,P
1579459175.2,286047002.3,N
1579459195.0,286047002.0,N
1579459195.9,286047002.0,N
1579459215.8,286047004.2,Y
1579459235.6,286047000.1,P
1579459255.5,286047000.4,N
1579459275.3,286046998.7,N
1579459295.1,286046996.9,N
1579459315.9,286046997.3,N
1579459335.7,286046995.0,N
1579459355.6,286046997.9,N
1579459375.4,286046997.8,N
1579459395.2,286046995.0,N
1579459415.1,286046995.4,N
1579459416.0,286046995.4,N
1579459435.8,286046994.9,N
1579459455.6,286046999.1,N
1579459475.5,286046998.9,N
1579459495.3,286046999.5,N
1579459515.2,286046998.4,N
1579459535.9,286047000.6,N
1579459555.7,286047002.7,N
1579459575.6,286047001.8,N
1579459595.4,286047001.9,N
1579459615.2,286047001.3,N
1579459635.1,286047000.1,N
1579459636.0,286047000.1,N
1579459655.8,286047000.4,N
1579459675.7,286047000.5,N
1579459695.5,286047000.5,N
1579459715.3,286047000.0,N
1579459735.2,286047000.0,N
1579459755.0,286047000.9,N
1579459755.9,286047000.9,N
1579459775.7,286047000.6,N
1579459795.6,286047000.6,N
1579459815.4,286047000.3,N
1579459835.3,286047002.4,N
1579459855.1,286047001.4,N
1579459875.8,286047005.6,N
1579459895.7,286047005.8,N
1579459915.5,286047004.9,N
1579459935.3,286047004.8,N
1579459955.2,286047005.9,N
1579459975.0,286047006.0,N
1579459975.9,286047006.0,N
1579459995.8,286047003.1,N
1579460015.6,286047006.0,N
1579460035.4,286047003.3,N
1579460055.3,286047005.5,N
1579460075.1,286047005.6,N
1579460095.8,286047004.7,N
1579460115.7,286047007.5,Y
1579460135.5,286047003.8,P
1579460155.4,286047004.2,P
1579460175.2,286047004.2,P
1579460195.0,286047001.3,N
1579460195.9,286047001.3,N
1579460215.8,286047001.3,N
1579460235.6,286047004.2,Y
1579460255.5,286047001.2,P
1579460275.3,286047001.2,N
1579460295.1,286047001.2,N
1579460315.9,286047000.9,N
1579460335.7,286047000.9,N
1579460355.5,286046998.9,N
1579460375.4,286046998.3,N
1579460395.2,286047001.0,N
